#timestamp,LO_Frequency,Hit,StdDev 
1662634815.4,286046990.1,N
1662634835.2,286046988.6,N
1662634855.1,286046990.9,N
1662634856.0,286046990.9,N
1662634875.8,286046996.7,N
1662634895.6,286047000.6,N
1662634915.5,286046993.8,N
1662634935.3,286046993.2,N
1662634955.2,286046998.0,N
1662634975.9,286047003.9,N
1662634995.7,286047003.3,N
1662635015.6,286046999.7,N
1662635035.4,286046992.6,N
1662635055.2,286046993.2,N
1662635075.1,286046994.9,N
1662635076.0,286046994.9,N
1662635095.8,286046990.6,N
1662635115.7,286046996.4,N
1662635135.5,286046994.0,N
1662635155.3,286047001.7,N
1662635175.2,286046999.3,N
1662635195.0,286047002.3,N
1662635195.9,286047002.3,N
1662635215.7,286046998.2,N
1662635235.6,286046997.9,N
1662635255.4,286046988.7,N
1662635275.3,286046981.0,Y
1662635295.1,286046973.7,P
1662635296.0,286046973.7,N
1662635315.8,286046972.1,N
1662635335.7,286046968.5,Y
1662635355.5,286046992.6,P
1662635375.3,286046995.3,N
1662635395.2,286046995.3,N
1662635415.0,286046995.4,N
1662635415.9,286046995.4,N
1662635435.8,286046993.2,N
1662635455.6,286047001.1,N
1662635475.4,286046997.7,N
1662635495.3,286046990.6,N
1662635515.1,286046989.7,N
1662635535.9,286046995.2,N
1662635555.7,286047003.9,N
1662635575.5,286047001.9,N
1662635595.4,286047008.1,N
1662635615.2,286047014.9,N
1662635635.0,286047014.9,N
1662635635.9,286047014.9,N
1662635655.8,286047013.9,N
1662635675.6,286047014.9,N
1662635695.5,286047019.6,N
1662635715.3,286047019.8,N
1662635735.1,286047019.2,N
1662635755.9,286047018.9,N
1662635775.7,286047021.0,N
1662635795.5,286047022.1,N
1662635815.4,286047019.3,N
1662635835.2,286047021.8,N
1662635855.1,286047020.2,N
1662635856.0,286047020.2,N
1662635875.8,286047025.0,N
1662635895.6,286047017.3,N
1662635915.5,286047021.1,N
1662635935.3,286047018.1,N
1662635955.2,286047014.9,N
1662635975.9,286047012.9,N
1662635995.7,286047012.8,N
1662636015.6,286047009.6,N
1662636035.4,286047012.3,N
1662636055.2,286047017.1,N
1662636075.1,286047021.4,N
1662636076.0,286047021.4,Y
1662636095.8,286047007.8,P
1662636115.7,286047003.8,N
1662636135.5,286047002.0,N
1662636155.3,286046998.1,N
1662636175.2,286046999.3,N
1662636195.9,286047001.1,N
1662636215.7,286046997.3,N
1662636235.6,286046988.8,N
1662636255.4,286046993.2,N
1662636275.3,286046986.0,N
1662636295.1,286046986.8,N
1662636296.0,286046986.8,N
1662636315.8,286046979.5,N
1662636335.7,286046982.4,N
1662636355.5,286046980.6,N
1662636375.3,286046987.5,N
1662636395.2,286046986.6,N
1662636415.0,286046988.3,N
1662636415.9,286046988.3,N
1662636435.8,286046988.6,N
1662636455.6,286046987.8,N
1662636475.4,286046984.7,N
1662636495.3,286046982.4,N
1662636515.1,286046981.5,N
1662636535.8,286046980.5,N
1662636555.7,286046973.0,N
1662636575.5,286046965.9,Y
1662636595.4,286046975.6,P
1662636615.2,286046972.0,P
1662636635.0,286046965.3,P
1662636635.9,286046965.3,Y
1662636655.8,286046989.8,P
1662636675.6,286046987.2,N
1662636695.4,286046992.2,N
1662636715.3,286046998.9,N
1662636735.1,286047002.6,N
1662636755.9,286046999.7,N
1662636775.7,286047003.4,N
1662636795.5,286047009.5,N
1662636815.4,286047017.9,N
1662636835.2,286047012.9,N
1662636855.0,286047010.1,N
1662636855.9,286047010.1,N
1662636875.8,286047014.9,N
1662636895.6,286047020.8,N
1662636915.5,286047019.0,N
1662636935.3,286047015.2,N
1662636955.1,286047003.5,N
1662636975.9,286046995.6,N
1662636995.7,286046994.8,N
1662637015.5,286046991.1,N
1662637035.4,286046989.6,N
1662637055.2,286046997.8,N
1662637075.1,286047005.7,N
1662637076.0,286047005.7,N
1662637095.8,286047008.7,N
1662637115.6,286047007.7,N
1662637135.5,286047006.8,N
1662637155.3,286046999.8,N
1662637175.1,286046997.8,N
1662637195.9,286046993.1,N
1662637215.7,286046990.7,N
1662637235.6,286046994.8,N
1662637255.4,286046992.5,N
1662637275.2,286046996.8,N
1662637295.1,286047000.5,N
1662637296.0,286047000.5,N
1662637315.8,286047001.2,N
1662637335.6,286046997.5,N
1662637355.5,286046996.0,N
1662637375.3,286046996.9,N
1662637395.2,286047005.3,N
1662637415.9,286047008.8,N
1662637435.7,286047006.4,N
1662637455.6,286047009.0,N
1662637475.4,286047003.6,N
1662637495.2,286046997.2,N
1662637515.1,286046994.9,N
1662637516.0,286046994.9,N
1662637535.8,286046998.0,N
1662637555.7,286046988.7,N
1662637575.5,286046987.7,N
1662637595.3,286046985.9,N
1662637615.2,286046988.7,N
1662637635.0,286046993.5,N
1662637635.9,286046993.5,N
1662637655.8,286046998.0,N
1662637675.6,286046990.5,N
1662637695.4,286046986.2,N
1662637715.3,286046977.9,Y
1662637735.1,286046979.6,P
1662637755.8,286046975.1,N
1662637775.7,286046972.9,N
1662637795.5,286046977.9,N
1662637815.4,286046981.0,N
1662637835.2,286046980.7,N
1662637855.0,286046977.4,Y
1662637855.9,286046977.4,P
1662637875.8,286046997.9,N
1662637895.6,286046996.5,N
1662637915.4,286046995.0,N
1662637935.3,286046990.3,N
1662637955.1,286046989.5,N
1662637975.9,286046987.9,N
1662637995.7,286046992.5,N
1662638015.5,286046991.4,N
1662638035.4,286046992.2,N
1662638055.2,286046994.8,N
1662638075.0,286046990.4,N
1662638075.9,286046990.4,N
1662638095.8,286046987.7,N
1662638115.6,286046985.9,N
1662638135.5,286046980.6,Y
1662638155.3,286046988.0,P
1662638175.1,286046984.1,P
1662638195.9,286046988.7,P
1662638215.7,286046988.8,Y
1662638235.5,286047003.6,P
1662638255.4,286047011.9,N
1662638275.2,286047014.4,N
1662638295.1,286047019.7,N
1662638296.0,286047019.7,N
1662638315.8,286047019.2,N
1662638335.6,286047023.4,N
1662638355.5,286047023.5,N
1662638375.3,286047023.0,N
1662638395.1,286047024.2,N
